Flag for U.S.A. Weather past 2 weeks in Long Beach, California, U.S.A.

Now
61 °F

Clear.


Feels Like: 61 °F
Forecast: 60 / 78 °F
Wind: No wind

Location: Long Beach Airport

Current Time: May 29, 2015 at 12:34:22 AM

Latest Report: May 28, 2015 at 11:53 PM


Visibility: 10 mi

Pressure: 29.96 "Hg

Humidity: 81%

Dew point: 55 °F

Location of Long BeachLocation

Historic Weather in Long Beach — Graph

°F

Long Beach temperature yesterday

Maximum temperature yesterday: 72 °F (at 5:53 PM)
Minimum temperature yesterday: 60 °F (at 12:53 AM)
Average temperature yesterday: 65 °F

Past Weeks' High & Low Weather Summary

 TemperatureHumidityPressure
High72 °F (May 27, 2:53 PM)87% (May 14, 12:53 PM)30.09 "Hg (May 14, 12:53 PM)
Low55 °F (May 16, 4:53 AM)44% (May 21, 1:53 PM)29.83 "Hg (May 15, 4:53 PM)
Average63 °F68%29.98 "Hg
* Reported May 13 10:53 PM — May 28 10:53 PM, Long Beach, Weather by CustomWeather, © 2015

Note: Actual official high and low records may vary slightly from our data, if they occured in-between our weather recording intervals... More about our weather records

Advertising

Long Beach weather history for previous 24 hours

 ConditionsComfort  
Time TempWeatherWind HumidityBarometerVisibility
10:53 PM
Thu, May 28
61 °FClear.6 mph83%29.96 "Hg10 mi
9:53 PM62 °FClear.6 mph80%29.95 "Hg10 mi
8:53 PM63 °FSunny.8 mph78%29.93 "Hg10 mi
7:53 PM65 °FSunny.10 mph73%29.92 "Hg10 mi
6:53 PM68 °FSunny.10 mph63%29.91 "Hg10 mi
5:53 PM72 °FSunny.8 mph57%29.90 "Hg10 mi
4:53 PM71 °FSunny.7 mph59%29.91 "Hg10 mi
3:53 PM70 °FSunny.10 mph59%29.93 "Hg10 mi
2:53 PM71 °FSunny.9 mph59%29.95 "Hg10 mi
1:53 PM69 °FSunny.10 mph61%29.96 "Hg10 mi
12:53 PM70 °FSunny.7 mph59%29.98 "Hg8 mi
11:53 AM68 °FPartly sunny.3 mph63%30.00 "Hg8 mi
10:53 AM65 °FOvercast.6 mph70%30.01 "Hg8 mi
9:53 AM64 °FOvercast.No wind73%30.01 "Hg6 mi
8:53 AM62 °FOvercast.No wind75%30.00 "Hg6 mi
7:53 AM62 °FOvercast.No wind75%30.00 "Hg7 mi
6:53 AM61 °FOvercast.3 mph78%29.98 "Hg7 mi
5:53 AM61 °FOvercast.No wind78%29.97 "Hg8 mi
4:53 AM60 °FOvercast.No wind83%29.96 "Hg10 mi
3:53 AM60 °FPassing clouds.No wind83%29.95 "Hg10 mi
2:53 AM60 °FClear.No wind80%29.96 "Hg10 mi
1:53 AM60 °FClear.3 mph80%29.96 "Hg10 mi
12:53 AM60 °FClear.3 mph80%29.98 "Hg10 mi
Weather by CustomWeather, © 2015

See weather overviewHow to use our weather pages